Flag for Canada Weather past 2 weeks in Saint John, New Brunswick, Canada

Now
34 °F

Light rain. Mostly cloudy.


Feels Like: 22 °F
Forecast: N/A
Wind: 20 mph from East

Location: Saint John

Current Time: Dec 17, 2014 at 5:49:54 PM

Latest Report: Dec 17, 2014 at 5:00 PM


Visibility: 15 mi

Pressure: 29.82 "Hg

Humidity: 87%

Dew point: 30 °F

Location of Saint JohnLocation

Historic Weather in Saint John — Graph

°F

Saint John temperature yesterday

Maximum temperature yesterday: 30 °F (at 12:00 AM)
Minimum temperature yesterday: 27 °F (at 6:00 AM)
Average temperature yesterday: 29 °F

Past Weeks' High & Low Weather Summary

 TemperatureHumidityPressure
High50 °F (Dec 3, 3:00 PM)100% (Dec 3, 9:00 AM)30.84 "Hg (Dec 3, 9:00 AM)
Low1 °F (Dec 8, 5:00 AM)27% (Dec 5, 3:00 PM)29.48 "Hg (Dec 11, 1:00 AM)
Average31 °F84%30.13 "Hg
* Reported Dec 2 4:00 PM — Dec 17 4:00 PM, Saint John, Weather by CustomWeather, © 2014

Note: Actual official high and low records may vary slightly from our data, if they occured in-between our weather recording intervals... More about our weather records

Advertising

Saint John weather history for previous 24 hours

 ConditionsComfort  
Time TempWeatherWind HumidityBarometerVisibility
4:00 PM
Dec 17
34 °FCloudy.16 mph81%29.84 "Hg15 mi
3:00 PM34 °FMostly cloudy.18 mph81%29.87 "Hg15 mi
2:00 PM36 °FMostly cloudy.12 mph81%29.91 "Hg15 mi
1:00 PM36 °FMostly cloudy.16 mph81%29.93 "Hg15 mi
12:00 PM37 °FMore clouds than sun.16 mph75%29.95 "Hg15 mi
11:00 AM37 °FMostly cloudy.12 mph75%30.00 "Hg15 mi
10:00 AM36 °FCloudy.9 mph87%30.01 "Hg15 mi
9:00 AM34 °FPartly sunny.9 mph87%30.02 "Hg15 mi
8:00 AM32 °FPartly sunny.9 mph93%30.01 "Hg15 mi
7:00 AM30 °FPassing clouds.5 mph100%30.04 "Hg15 mi
6:00 AM28 °FPartly cloudy.No wind93%30.05 "Hg15 mi
5:00 AM30 °FPassing clouds.6 mph93%30.06 "Hg15 mi
4:00 AM32 °FOvercast.2 mph93%30.08 "Hg15 mi
3:00 AM32 °FOvercast.No wind93%30.09 "Hg15 mi
2:00 AM30 °FOvercast.7 mph93%30.09 "Hg15 mi
1:00 AM30 °FMostly cloudy.3 mph93%30.10 "Hg15 mi
12:00 AM30 °FMostly cloudy.3 mph93%30.11 "Hg15 mi
11:00 PM
Dec 16
30 °FMostly cloudy.7 mph93%30.12 "Hg15 mi
10:00 PM30 °FLight snow. Overcast.No wind86%30.14 "Hg15 mi
9:00 PM30 °FOvercast.2 mph86%30.15 "Hg15 mi
8:00 PM30 °FOvercast.No wind86%30.16 "Hg15 mi
7:00 PM30 °FOvercast.2 mph86%30.16 "Hg15 mi
6:00 PM30 °FOvercast.No wind80%30.16 "Hg15 mi
5:00 PM30 °FOvercast.3 mph80%30.16 "Hg15 mi
Weather by CustomWeather, © 2014

See weather overviewHow to use our weather pages